Overview Statistics Trail Chart Weather Telemetry Raw packets
 

This is the latest recevied weather packets stored in our database for station/object IW0HP-3. If no packets are shown the sender has not sent any weather packets the latest 10 day(s).

<< 24 25 26 27 28 >>
Time Temp. Humidity Pressure Rain* Wind** Luminosity Snow
1787808764 26.11° C 66% 1016.7 hPa - - - -
1787807560 25.56° C 68% 1016.5 hPa - - - -
1787806355 25.56° C 68% 1016.2 hPa - - - -
1787805151 25.56° C 69% 1016.2 hPa - - - -
1787803946 25.56° C 70% 1016.2 hPa - - - -
1787802742 25.56° C 71% 1016.8 hPa - - - -
1787801537 25.56° C 72% 1017.2 hPa - - - -
1787800333 25.56° C 74% 1017.3 hPa - - - -
1787799129 25.56° C 73% 1017.1 hPa - - - -
1787797924 25.56° C 74% 1017.2 hPa - - - -
1787796720 26.11° C 74% 1017.4 hPa - - - -
1787795515 26.11° C 73% 1016.4 hPa - - - -
1787794311 26.11° C 70% 1016.5 hPa - - - -
1787793106 26.11° C 69% 1016.2 hPa - - - -
1787791902 26.11° C 69% 1016.2 hPa - - - -
1787790697 26.67° C 68% 1015.3 hPa - - - -
1787789493 27.22° C 68% 1015.6 hPa - - - -
1787788288 27.22° C 73% 1015.8 hPa - - - -
1787787084 27.22° C 78% 1016.3 hPa - - - -
1787785879 27.22° C 75% 1016.4 hPa - - - -
1787784675 27.22° C 77% 1016.6 hPa - - - -
1787783470 27.22° C 79% 1016.5 hPa - - - -
1787782266 27.78° C 76% 1016.6 hPa - - - -
1787781061 27.78° C 70% 1016.4 hPa - - - -
1787779857 28.33° C 70% 1016.5 hPa - - - -

* Rain since midnight (hover to see other rain measurements)
** Current wind speed in m/s (hover to see current wind gust speed)